Weather History for Altoona, PA

Change the Weather History Date:

Sunday, March 24, 2013

  Actual Average Record
Temperature  
Mean Temperature 31 °F 40 °F  
Max Temperature 39 °F 50 °F 74 °F (1988)
Min Temperature 23 °F 31 °F 15 °F (2014)
Degree Days  
Heating Degree Days 34 25  
Month to date heating degree days 697  
Since 1 July heating degree days 5252  
Cooling Degree Days 0 0  
Month to date cooling degree days 0  
Year to date cooling degree days 0  
Moisture  
Dew Point 20 °F    
Average Humidity 62    
Maximum Humidity 88    
Minimum Humidity 46    
Precipitation  
Precipitation 0.00 in 0.10 in 1.64 in (1979)
Month to date precipitation 2.30  
Year to date precipitation 6.51  
Sea Level Pressure  
Sea Level Pressure 29.84 in    
Wind  
Wind Speed 5 mph (East)    
Max Wind Speed 9 mph    
Max Gust Speed 16 mph    
Visibility 10 miles    
Events Snow    
T = Trace of Precipitation, MM = Missing Value Source: NWS Daily Summary

Daily Weather History Graph

Daily Weather History Graph

Search for Another Location

Airport:

Trip Planner

Search our weather history database for the weather conditions in past years. The results will help you decide how hot, cold, wet, or windy it might be!

Date:

Astronomy

Mar. 24, 2013 Rise Set
Actual Time 7:09 AM EDT 7:29 PM EDT
Civil Twilight 6:42 AM EDT 7:56 PM EDT
Nautical Twilight 6:10 AM EDT 8:29 PM EDT
Astronomical Twilight 5:38 AM EDT 9:01 PM EDT
Moon 4:55 PM EDT (3/24) 5:19 AM EDT (3/24)
Length of Visible Light 13h 14m
Length of Day
12h 20m
Waxing Gibbous, 91% of the Moon is Illuminated
Mar 24
Waxing Gibbous
Mar 27
Full
Apr 3
Last Quarter
Apr 10
New
Apr 18
First Quarter

Hourly Weather History & Observations

Time (EDT) Temp. Windchill Dew Point Humidity Pressure Visibility Wind Dir Wind Speed Gust Speed Precip Events Conditions
12:53 AM 28.9 °F 21.1 °F 19.0 °F 67% 29.99 in 10.0 mi NNW 8.1 mph - N/A   Clear
1:53 AM 28.0 °F 22.8 °F 18.0 °F 66% 29.98 in 10.0 mi SSW 4.6 mph - N/A   Clear
2:53 AM 27.0 °F 21.6 °F 18.0 °F 69% 29.99 in 10.0 mi West 4.6 mph - N/A   Clear
3:53 AM 23.0 °F - 17.1 °F 78% 29.97 in 10.0 mi Calm Calm - N/A   Clear
4:53 AM 24.1 °F - 19.0 °F 81% 29.99 in 10.0 mi Calm Calm - N/A   Clear
5:53 AM 26.1 °F - 19.0 °F 75% 29.98 in 10.0 mi Calm Calm - N/A   Clear
6:53 AM 25.0 °F - 19.0 °F 78% 29.98 in 10.0 mi Calm Calm - N/A   Clear
7:53 AM 24.1 °F - 21.0 °F 88% 29.99 in 10.0 mi Calm Calm - N/A   Clear
8:53 AM 28.0 °F 22.8 °F 21.9 °F 78% 29.97 in 10.0 mi NE 4.6 mph - N/A   Clear
9:53 AM 30.9 °F 26.2 °F 21.9 °F 69% 29.95 in 10.0 mi ENE 4.6 mph - N/A   Clear
10:53 AM 32.0 °F 25.6 °F 21.0 °F 64% 29.91 in 10.0 mi NE 6.9 mph - N/A   Clear
11:53 AM 34.0 °F 28.0 °F 21.0 °F 59% 29.88 in 10.0 mi ENE 6.9 mph - N/A   Clear
12:53 PM 35.1 °F 30.1 °F 21.0 °F 57% 29.83 in 10.0 mi ENE 5.8 mph - N/A   Clear
1:53 PM 37.0 °F 31.6 °F 21.9 °F 54% 29.78 in 10.0 mi East 6.9 mph - N/A   Clear
2:53 PM 37.9 °F 33.5 °F 21.0 °F 51% 29.75 in 10.0 mi SE 5.8 mph - N/A   Clear
3:53 PM 39.0 °F 35.7 °F 19.9 °F 46% 29.74 in 10.0 mi SSE 4.6 mph - N/A   Clear
4:53 PM 37.9 °F 34.4 °F 19.9 °F 48% 29.73 in 10.0 mi ESE 4.6 mph - N/A   Scattered Clouds
5:53 PM 37.9 °F 34.4 °F 19.0 °F 47% 29.70 in 10.0 mi East 4.6 mph - N/A   Mostly Cloudy
6:53 PM 37.0 °F 31.6 °F 19.0 °F 48% 29.69 in 10.0 mi East 6.9 mph - N/A   Overcast
7:53 PM 37.0 °F 32.4 °F 19.9 °F 50% 29.69 in 10.0 mi ESE 5.8 mph - N/A   Overcast
8:53 PM 37.0 °F 31.0 °F 19.9 °F 50% 29.67 in 10.0 mi ESE 8.1 mph - N/A   Overcast
9:53 PM 36.0 °F 29.0 °F 18.0 °F 48% 29.66 in 10.0 mi East 9.2 mph - N/A   Overcast
10:53 PM 36.0 °F 31.1 °F 19.0 °F 50% 29.64 in 10.0 mi East 5.8 mph - N/A   Overcast
11:53 PM 34.0 °F 28.8 °F 21.9 °F 61% 29.62 in 8.0 mi SE 5.8 mph 16.1 mph 0.00 in Snow Light Snow